Tracking 25193 objects as of 18-Jan-2022
HD Live streaming from Space Station
objects crossing your sky now

STARLINK-1545

Track STARLINK-1545 now!
10-day predictions
STARLINK-1545 is classified as:


NORAD ID: 46156
Int'l Code: 2020-057AR
Perigee: 551.5 km
Apogee: 554.0 km
Inclination: 53.1 °
Period: 95.6 minutes
Semi major axis: 6923 km
RCS: Unknown
Launch date: August 18, 2020
Source: United States (US)
Launch site: AIR FORCE EASTERN TEST RANGE (AFETR)
aabbcc
Your satellite tracking list
Your tracking list is empty




NASA's NSSDC Master Catalog

Two Line Element Set (TLE):
1 46156U 20057AR  22017.02909704  .00072711  00000-0  47816-2 0  9995
2 46156  53.0530 247.2068 0001820 276.1113  83.9669 15.06927677 79604
Source of the keplerian elements: AFSPC